When you browse on this site, cookies collect data to enhance your experience and personalize the content and advertising you see.
Visit our Privacy Policy to learn more. By continuing to use the site, you agree to this use of cookies and data.
  • In Czech Republic
  • List of Countries
  • For 7 days
  • Water Temperature
  • Weather Map
  • Weather Widgets
  • user-avatar
    Login

    Hourly Weather Uige

    Today, 15 September, Sunday

    Time Temperature Precipitation Wind Pressure Humidity
    00:00 +24°C° 0 mm 1 mps 691 mmHg 63%
    01:00 +22°C° 0 mm 1 mps 691 mmHg 72%
    02:00 +22°C° 0 mm 1 mps 691 mmHg 75%
    03:00 +21°C° 0 mm 1 mps 690 mmHg 79%
    04:00 +21°C° 0 mm 1 mps 690 mmHg 83%
    05:00 +19°C° 0 mm 0 mps 691 mmHg 81%
    06:00 +19°C° 0 mm 0 mps 691 mmHg 79%
    07:00 +19°C° 0 mm 0 mps 692 mmHg 77%
    08:00 +23°C° 0 mm 0 mps 693 mmHg 63%
    09:00 +28°C° 0 mm 1 mps 693 mmHg 49%
    10:00 +32°C° 0 mm 1 mps 694 mmHg 35%
    11:00 +33°C° 0 mm 1 mps 693 mmHg 32%
    12:00 +35°C° 0 mm 1 mps 692 mmHg 29%
    13:00 +37°C° 0 mm 1 mps 692 mmHg 25%
    14:00 +36°C° 0 mm 1 mps 691 mmHg 27%
    15:00 +35°C° 0 mm 1 mps 690 mmHg 28%
    16:00 +35°C° 0 mm 2 mps 689 mmHg 30%
    17:00 +33°C° 0 mm 1 mps 690 mmHg 33%
    18:00 +31°C° 0 mm 1 mps 690 mmHg 36%
    19:00 +30°C° 0 mm 1 mps 690 mmHg 38%
    20:00 +29°C° 0 mm 1 mps 691 mmHg 44%
    21:00 +27°C° 0 mm 1 mps 691 mmHg 49%
    22:00 +26°C° 0 mm 1 mps 692 mmHg 54%
    23:00 +25°C° 0 mm 1 mps 691 mmHg 59%

    Tomorrow, 16 September, Monday

    Time Temperature Precipitation Wind Pressure Humidity
    00:00 +24°C° 0 mm 1 mps 691 mmHg 64%
    01:00 +21°C° 0 mm 0 mps 690 mmHg 69%
    02:00 +21°C° 0 mm 0 mps 690 mmHg 71%
    03:00 +23°C° 0 mm 1 mps 690 mmHg 73%
    04:00 +22°C° 0 mm 1 mps 690 mmHg 75%
    05:00 +23°C° 0 mm 1 mps 690 mmHg 75%
    06:00 +21°C° 0 mm 0 mps 691 mmHg 74%
    07:00 +21°C° 0 mm 0 mps 691 mmHg 74%
    08:00 +26°C° 0 mm 1 mps 692 mmHg 64%
    09:00 +29°C° 0 mm 1 mps 692 mmHg 53%
    10:00 +32°C° 0 mm 2 mps 693 mmHg 43%
    11:00 +34°C° 0 mm 2 mps 692 mmHg 40%
    12:00 +34°C° 0 mm 2 mps 692 mmHg 38%
    13:00 +35°C° 0 mm 2 mps 691 mmHg 35%
    14:00 +35°C° 0 mm 2 mps 691 mmHg 35%
    15:00 +35°C° 0 mm 2 mps 690 mmHg 34%
    16:00 +35°C° 0 mm 1 mps 690 mmHg 33%
    17:00 +32°C° 0.3 mm 2 mps 690 mmHg 42%
    18:00 +29°C° 0.3 mm 2 mps 691 mmHg 52%
    19:00 +27°C° 0.3 mm 2 mps 691 mmHg 61%
    20:00 +26°C° 0.3 mm 1 mps 691 mmHg 66%
    21:00 +25°C° 0.3 mm 1 mps 691 mmHg 71%
    22:00 +24°C° 0.3 mm 1 mps 692 mmHg 75%
    23:00 +24°C° 0 mm 1 mps 691 mmHg 77%

    Day after tomorrow, 17 September, Tuesday

    Time Temperature Precipitation Wind Pressure Humidity
    00:00 +23°C° 0 mm 1 mps 691 mmHg 79%
    01:00 +23°C° 0 mm 1 mps 691 mmHg 80%
    02:00 +22°C° 0 mm 1 mps 691 mmHg 83%
    03:00 +22°C° 0 mm 1 mps 690 mmHg 85%
    04:00 +21°C° 0 mm 1 mps 690 mmHg 88%
    05:00 +22°C° 0 mm 1 mps 691 mmHg 86%
    06:00 +22°C° 0 mm 1 mps 691 mmHg 85%
    07:00 +22°C° 0 mm 1 mps 692 mmHg 83%
    08:00 +25°C° 0 mm 1 mps 692 mmHg 70%
    09:00 +29°C° 0 mm 1 mps 692 mmHg 57%
    10:00 +32°C° 0 mm 1 mps 693 mmHg 44%
    11:00 +34°C° 0 mm 1 mps 692 mmHg 39%
    12:00 +36°C° 0 mm 1 mps 692 mmHg 34%
    13:00 +39°C° 0 mm 1 mps 691 mmHg 30%
    14:00 +34°C° 1.4 mm 1 mps 690 mmHg 43%
    15:00 +31°C° 1.4 mm 2 mps 689 mmHg 56%
    16:00 +27°C° 1.4 mm 2 mps 688 mmHg 69%
    17:00 +26°C° 0.9 mm 2 mps 688 mmHg 74%
    18:00 +25°C° 0.9 mm 1 mps 689 mmHg 78%
    19:00 +24°C° 0.9 mm 1 mps 690 mmHg 83%
    20:00 +24°C° 0 mm 1 mps 690 mmHg 84%
    21:00 +24°C° 0 mm 1 mps 691 mmHg 86%
    22:00 +23°C° 0 mm 1 mps 691 mmHg 87%
    23:00 +23°C° 0.1 mm 1 mps 691 mmHg 88%

    18 September, Wednesday

    Time Temperature Precipitation Wind Pressure Humidity
    00:00 +22°C° 0.1 mm 1 mps 691 mmHg 89%
    01:00 +22°C° 0.1 mm 1 mps 691 mmHg 90%
    02:00 +22°C° 0.3 mm 1 mps 691 mmHg 90%
    03:00 +21°C° 0.3 mm 1 mps 691 mmHg 90%
    04:00 +21°C° 0.3 mm 1 mps 691 mmHg 90%
    05:00 +21°C° 0 mm 1 mps 691 mmHg 88%
    06:00 +21°C° 0 mm 1 mps 692 mmHg 85%
    07:00 +21°C° 0 mm 1 mps 692 mmHg 83%
    08:00 +23°C° 0 mm 1 mps 692 mmHg 71%
    09:00 +25°C° 0 mm 2 mps 692 mmHg 59%
    10:00 +28°C° 0 mm 2 mps 692 mmHg 46%
    11:00 +29°C° 0 mm 2 mps 692 mmHg 43%
    12:00 +31°C° 0 mm 2 mps 692 mmHg 39%
    13:00 +34°C° 0 mm 2 mps 691 mmHg 35%
    14:00 +34°C° 0 mm 2 mps 691 mmHg 35%
    15:00 +34°C° 0 mm 2 mps 690 mmHg 35%
    16:00 +34°C° 0 mm 2 mps 690 mmHg 35%
    17:00 +31°C° 0 mm 2 mps 690 mmHg 39%
    18:00 +29°C° 0 mm 2 mps 690 mmHg 43%
    19:00 +28°C° 0 mm 2 mps 690 mmHg 47%
    20:00 +27°C° 0 mm 1 mps 691 mmHg 52%
    21:00 +25°C° 0 mm 1 mps 691 mmHg 58%
    22:00 +24°C° 0 mm 1 mps 691 mmHg 63%
    23:00 +23°C° 0 mm 1 mps 691 mmHg 66%

    19 September, Thursday

    Time Temperature Precipitation Wind Pressure Humidity
    00:00 +22°C° 0 mm 1 mps 691 mmHg 68%
    01:00 +22°C° 0 mm 1 mps 691 mmHg 71%
    02:00 +21°C° 0 mm 1 mps 691 mmHg 72%
    03:00 +21°C° 0 mm 1 mps 691 mmHg 73%
    04:00 +19°C° 0 mm 0 mps 691 mmHg 75%
    05:00 +19°C° 0 mm 0 mps 692 mmHg 72%
    06:00 +19°C° 0 mm 0 mps 692 mmHg 70%
    07:00 +19°C° 0 mm 0 mps 692 mmHg 67%
    08:00 +24°C° 0 mm 1 mps 693 mmHg 56%
    09:00 +27°C° 0 mm 1 mps 693 mmHg 46%
    10:00 +29°C° 0 mm 2 mps 693 mmHg 35%
    11:00 +31°C° 0 mm 2 mps 693 mmHg 33%
    12:00 +32°C° 0 mm 2 mps 692 mmHg 32%
    13:00 +34°C° 0 mm 2 mps 691 mmHg 30%
    14:00 +34°C° 0 mm 2 mps 691 mmHg 30%
    15:00 +34°C° 0 mm 2 mps 690 mmHg 31%
    16:00 +33°C° 0 mm 1 mps 690 mmHg 31%
    17:00 +31°C° 0 mm 1 mps 690 mmHg 35%
    18:00 +30°C° 0 mm 1 mps 690 mmHg 39%
    19:00 +28°C° 0 mm 1 mps 690 mmHg 43%
    20:00 +27°C° 0 mm 1 mps 691 mmHg 49%
    21:00 +25°C° 0 mm 1 mps 691 mmHg 56%
    22:00 +24°C° 0 mm 2 mps 692 mmHg 62%
    23:00 +23°C° 0 mm 2 mps 692 mmHg 66%

    20 September, Friday

    Time Temperature Precipitation Wind Pressure Humidity
    00:00 +21°C° 0 mm 2 mps 691 mmHg 69%
    01:00 +20°C° 0 mm 2 mps 691 mmHg 73%
    02:00 +21°C° 0 mm 1 mps 691 mmHg 76%
    03:00 +20°C° 0 mm 1 mps 691 mmHg 78%
    04:00 +19°C° 0 mm 1 mps 691 mmHg 81%
    05:00 +20°C° 0 mm 1 mps 691 mmHg 78%
    06:00 +20°C° 0 mm 1 mps 692 mmHg 76%
    07:00 +21°C° 0 mm 1 mps 692 mmHg 74%
    08:00 +24°C° 0 mm 1 mps 693 mmHg 62%
    09:00 +27°C° 0 mm 2 mps 693 mmHg 50%
    10:00 +30°C° 0 mm 2 mps 693 mmHg 38%
    11:00 +31°C° 0 mm 2 mps 693 mmHg 35%
    12:00 +34°C° 0 mm 2 mps 692 mmHg 32%
    13:00 +36°C° 0 mm 2 mps 691 mmHg 28%
    14:00 +35°C° 0 mm 2 mps 691 mmHg 29%
    15:00 +35°C° 0 mm 2 mps 690 mmHg 29%
    16:00 +35°C° 0 mm 2 mps 690 mmHg 30%
    17:00 +32°C° 0 mm 2 mps 690 mmHg 33%
    18:00 +31°C° 0 mm 2 mps 690 mmHg 37%
    19:00 +29°C° 0 mm 2 mps 690 mmHg 40%
    20:00 +27°C° 0 mm 2 mps 691 mmHg 47%
    21:00 +26°C° 0 mm 1 mps 691 mmHg 54%
    22:00 +24°C° 0 mm 1 mps 691 mmHg 61%
    23:00 +23°C° 0 mm 1 mps 691 mmHg 65%
    Show more